Fulton, NY

11:07 PM EDT on August 20, 2017 (GMT -0400)
Oswego County

Weather History for KFZY - October, 2012

Change the Weather History Date:

Monday, October 29, 2012

  Actual Average (KSYR) Record (KSYR)
Temperature  
Mean Temperature 50 °F -  
Max Temperature 57 °F 53 °F 76 °F (1945)
Min Temperature 46 °F 34 °F 18 °F (1940)
Degree Days  
Heating Degree Days 14    
Moisture  
Dew Point 47 °F    
Average Humidity 86    
Maximum Humidity 93    
Minimum Humidity 74    
Precipitation  
Precipitation 0.14 in - - ()
Sea Level Pressure  
Sea Level Pressure 29.50 in    
Wind  
Wind Speed 15 mph (NNE)    
Max Wind Speed 30 mph    
Max Gust Speed 52 mph    
Visibility 9 miles    
Events Rain    
Averages and records for this station are not official NWS values.
T = Trace of Precipitation, MM = Missing Value Source: NWS Daily Summary

Daily Weather History Graph

Daily Weather History Graph

Search for Another Location

Airport or City:

Trip Planner

Search our weather history database for the weather conditions in past years. The results will help you decide how hot, cold, wet, or windy it might be!

Date:

Astronomy

Oct. 29, 2012 Rise Set
Actual Time 7:37 AM EDT 6:00 PM EDT
Civil Twilight 7:07 AM EDT 6:29 PM EDT
Nautical Twilight 6:34 AM EDT 7:03 PM EDT
Astronomical Twilight 6:01 AM EDT 7:36 PM EDT
Moon 5:49 PM EDT (10/29) 7:26 AM EDT (10/29)
Length of Visible Light 11h 21m
Length of Day
10h 22m
Full, 100% of the Moon is Illuminated
Oct 29
Full
Oct 29
Full
Nov 6
Last Quarter
Nov 13
New
Nov 20
First Quarter

Hourly Weather History & Observations

Time (EDT) Temp. Windchill Dew Point Humidity Pressure Visibility Wind Dir Wind Speed Gust Speed Precip Events Conditions
12:54 AM 46.0 °F 41.4 °F 43.0 °F 89% 29.84 in 10.0 mi North 9.2 mph - N/A   Mostly Cloudy
1:54 AM 46.0 °F 43.1 °F 43.0 °F 89% 29.82 in 10.0 mi North 5.8 mph - N/A   Overcast
2:54 AM 46.0 °F 40.6 °F 44.1 °F 93% 29.81 in 10.0 mi North 11.5 mph - N/A   Overcast
3:22 AM 46.4 °F 41.1 °F 44.6 °F 93% 29.79 in 10.0 mi North 11.5 mph 20.7 mph N/A   Overcast
3:54 AM 46.0 °F 40.2 °F 43.0 °F 89% 29.80 in 10.0 mi North 12.7 mph - N/A   Overcast
4:54 AM 46.0 °F 40.6 °F 44.1 °F 93% 29.79 in 10.0 mi North 11.5 mph - N/A   Overcast
5:54 AM 46.0 °F 39.0 °F 44.1 °F 93% 29.79 in 7.0 mi North 17.3 mph - N/A   Overcast
6:54 AM 46.9 °F - 44.1 °F 90% 29.75 in 8.0 mi North 15.0 mph 23.0 mph N/A   Overcast
7:54 AM 48.0 °F - 45.0 °F 89% 29.75 in 8.0 mi NNE 15.0 mph 21.9 mph N/A   Overcast
8:54 AM 48.0 °F - 45.0 °F 89% 29.75 in 7.0 mi North 13.8 mph - N/A   Overcast
9:17 AM 48.2 °F - 44.6 °F 87% 29.73 in 8.0 mi North 15.0 mph 20.7 mph N/A   Overcast
9:54 AM 48.9 °F - 45.0 °F 86% 29.72 in 10.0 mi NNE 13.8 mph 23.0 mph N/A   Overcast
10:54 AM 50.0 °F - 46.0 °F 86% 29.70 in 10.0 mi NNE 17.3 mph 24.2 mph N/A   Overcast
11:54 AM 50.0 °F - 46.0 °F 86% 29.66 in 10.0 mi North 16.1 mph 25.3 mph N/A   Overcast
12:54 PM 50.0 °F - 46.0 °F 86% 29.62 in 10.0 mi North 19.6 mph 29.9 mph N/A   Overcast
1:31 PM 50.0 °F - 46.4 °F 87% 29.58 in 2.5 mi North 13.8 mph 24.2 mph 0.01 in Rain Light Rain
1:39 PM 50.0 °F - 46.4 °F 87% 29.57 in 7.0 mi North 13.8 mph 24.2 mph 0.01 in Rain Light Rain
1:54 PM 50.0 °F - 46.9 °F 89% 29.55 in 8.0 mi North 17.3 mph 24.2 mph 0.01 in   Overcast
2:22 PM 51.8 °F - 46.4 °F 82% 29.50 in 9.0 mi North 20.7 mph 28.8 mph N/A   Overcast
2:54 PM 51.1 °F - 46.9 °F 86% 29.49 in 10.0 mi North 18.4 mph 32.2 mph N/A   Overcast
3:54 PM 52.0 °F - 46.9 °F 83% 29.46 in 10.0 mi NNE 28.8 mph 42.6 mph 0.00 in Rain Light Rain
4:54 PM 51.1 °F - 48.0 °F 89% 29.39 in 10.0 mi North 23.0 mph 32.2 mph 0.00 in Rain Light Rain
5:54 PM 51.1 °F - 48.9 °F 92% 29.33 in 3.0 mi North 23.0 mph 38.0 mph 0.06 in Rain Rain
6:15 PM 51.8 °F - 48.2 °F 88% 29.28 in 3.0 mi North 24.2 mph 40.3 mph 0.05 in Rain Rain
6:35 PM 51.8 °F - 48.2 °F 88% 29.26 in 10.0 mi North 25.3 mph 39.1 mph 0.06 in Rain Light Rain
6:54 PM 52.0 °F - 48.9 °F 89% 29.24 in 10.0 mi North 24.2 mph 36.8 mph 0.06 in Rain Light Rain
7:54 PM 55.0 °F - 50.0 °F 83% 29.20 in 8.0 mi NNE 23.0 mph 39.1 mph 0.01 in Rain Light Rain
8:49 PM 55.4 °F - 50.0 °F 82% 29.15 in 10.0 mi NE 20.7 mph 51.8 mph 0.00 in Rain Light Rain
8:54 PM 55.9 °F - 50.0 °F 80% 29.16 in 10.0 mi NE 28.8 mph 41.4 mph 0.00 in Rain Light Rain
9:27 PM 55.4 °F - 48.2 °F 77% 29.13 in 10.0 mi NNE 29.9 mph 43.7 mph 0.00 in   Overcast
9:44 PM 55.4 °F - 48.2 °F 77% 29.12 in 10.0 mi NNE 29.9 mph 44.9 mph 0.00 in   Overcast
9:54 PM 55.9 °F - 48.9 °F 77% 29.13 in 10.0 mi NE 16.1 mph 41.4 mph 0.00 in   Overcast
10:16 PM 55.4 °F - 48.2 °F 77% 29.13 in 10.0 mi ENE 13.8 mph 40.3 mph N/A   Overcast
11:54 PM 57.0 °F - 48.9 °F 74% 29.08 in 10.0 mi NE 16.1 mph 38.0 mph 0.00 in   Overcast